Home   Weather   Montréal   Past weeks

Flag for Canada Past Weather in Montréal, Quebec, Canada — Yesterday and Last 2 Weeks

Now
37 °F

Mostly cloudy.


Feels Like: 29 °F
Forecast: 26 / 38 °F
Wind: 14 mph from West

Location: Montreal - Pierre Elliot Trudeau International Aiport

Current Time: Feb 24, 2018 at 10:35:24 am

Latest Report: Feb 24, 2018 at 9:00 am


Visibility: 15 mi

Pressure: 30.14 "Hg

Humidity: 75%

Dew Point: 30 °F

Location of MontréalLocation

Past Weather in Montréal — Graph

°F

Montréal Temperature Yesterday

Maximum temperature yesterday: 36 °F (at 2:00 pm)
Minimum temperature yesterday: 18 °F (at 4:00 am)
Average temperature yesterday: 28 °F

High & Low Weather Summary for the Past Weeks

 TemperatureHumidityPressure
High43 °F (Feb 19, 2:00 pm)100% (Feb 11, 10:14 pm)30.86 "Hg (Feb 11, 10:14 pm)
Low-2 °F (Feb 13, 6:00 am)49% (Feb 19, 2:00 pm)29.56 "Hg (Feb 15, 1:26 pm)
Average26 °F79%30.17 "Hg
* Reported Feb 9 9:00 am — Feb 24 9:00 am, Montréal. Weather by CustomWeather, © 2018

Note: Actual official high and low records may vary slightly from our data, if they occured in-between our weather recording intervals... More about our weather records

Advertising

Montréal Weather History for the Previous 24 Hours

Scroll right to see more
 ConditionsComfort  
Time TempWeatherWind HumidityBarometerVisibility
9:00 am
Sat, Feb 24
37 °FMostly cloudy.14 mph75%30.14 "Hg15 mi
8:00 am37 °FBroken clouds.18 mph81%30.11 "Hg15 mi
7:00 am37 °FOvercast.14 mph81%30.08 "Hg15 mi
6:00 am37 °FOvercast.14 mph81%30.06 "Hg15 mi
5:00 am37 °FOvercast.13 mph87%30.03 "Hg15 mi
4:16 am36 °FMostly cloudy.12 mph93%30.02 "Hg15 mi
4:00 am37 °FMostly cloudy.14 mph87%30.01 "Hg15 mi
3:00 am37 °FMostly cloudy.14 mph93%30.00 "Hg15 mi
2:45 am37 °FMostly cloudy.14 mph93%30.00 "Hg15 mi
2:00 am37 °FMostly cloudy.17 mph93%29.99 "Hg15 mi
1:00 am37 °FLow clouds.17 mph93%29.97 "Hg15 mi
12:28 am36 °FLow clouds.18 mph100%29.96 "Hg10 mi
12:00 am36 °FDrizzle. Low clouds.13 mph93%29.95 "Hg8 mi
11:00 pm
Fri, Feb 23
34 °FDrizzle. Fog.7 mph93%29.96 "Hg3 mi
10:52 pm34 °FDrizzle. Fog.7 mph93%29.97 "Hg3 mi
10:29 pm34 °FDrizzle. Fog.6 mph93%29.97 "Hg2 mi
10:00 pm34 °FDrizzle. Fog.5 mph93%29.98 "Hg2 mi
9:16 pm34 °FDrizzle. Mostly cloudy.3 mph93%29.99 "Hg2 mi
9:00 pm34 °FDrizzle. Fog.6 mph93%29.99 "Hg3 mi
8:19 pm34 °FDrizzle. Fog.10 mph93%29.99 "Hg3 mi
8:00 pm34 °FDrizzle. Fog.10 mph93%29.99 "Hg3 mi
7:00 pm34 °FDrizzle. Fog.13 mph93%30.02 "Hg4 mi
6:16 pm34 °FLight rain. Fog.12 mph93%30.04 "Hg4 mi
6:00 pm34 °FLight rain. Fog.13 mph93%30.04 "Hg5 mi
5:00 pm34 °FLight rain. Fog.14 mph87%30.08 "Hg5 mi
4:00 pm34 °FLight rain. Fog.17 mph81%30.14 "Hg6 mi
3:00 pm34 °FLight rain. Overcast.14 mph75%30.16 "Hg15 mi
2:35 pm34 °FSleet. Mostly cloudy.14 mph70%30.21 "Hg8 mi
2:00 pm36 °FSleet. Mostly cloudy.12 mph56%30.24 "Hg10 mi
1:33 pm34 °FSnow flurries. Mostly cloudy.13 mph60%30.26 "Hg15 mi
1:00 pm32 °FSnow flurries. Mostly cloudy.12 mph64%30.31 "Hg15 mi
12:00 pm28 °FMostly cloudy.9 mph59%30.41 "Hg15 mi
11:00 am27 °FMostly cloudy.10 mph59%30.47 "Hg15 mi
10:00 am23 °FMostly cloudy.10 mph68%30.53 "Hg30 mi
Weather by CustomWeather, © 2018

See weather overview